Regional Weather Roundup
Issued by NWS

Home | Current Version | Previous Version | Text Only | Print | Product List | Glossary On
Versions: 1 2 3 4 5 6 7 8 9 10 11 12 13 14 15 16 17 18 19 20 21 22 23 24 25 26 27 28 29 30 31 32 33 34 35 36 37 38 39 40 41 42 43 44 45 46 47 48 49 50
000
ASUS43 KOAX 251010
RWRNE

WEATHER ROUNDUP FOR NEBRASKA
NATIONAL WEATHER SERVICE OMAHA NE
500 AM CDT SUN SEP 25 2016

NOTES: SATELLITE DATA IS BEING USED TO AUGMENT CLOUD COVER ABOVE
       12000 FEET.
       "FAIR" INDICATES FEW OR NO CLOUDS BELOW 12,000 FEET WITH NO
       SIGNIFICANT WEATHER AND/OR OBSTRUCTIONS TO VISIBILITY.

  * THESE STATIONS DO NOT REPORT WEATHER SUCH AS RAIN...SNOW OR FOG.

NEZ001>004-019>022-054>056-251100-
NEBRASKA PANHANDLE

CITY           SKY/WX    TMP DP  RH WIND       PRES   REMARKS
SCOTTSBLUFF    CLEAR     42  38  85 NW8       30.31R
ALLIANCE       CLEAR     45  40  82 W14       30.26R
CHADRON        CLEAR     49  41  74 W15       30.25R
KIMBALL        CLEAR     43  39  86 NW12      30.32S
SIDNEY         CLEAR     44  38  79 NW13      30.31R
$$

NEZ057>060-069>072-079>082-251100-
SOUTHWEST NEBRASKA

CITY           SKY/WX    TMP DP  RH WIND       PRES   REMARKS
NORTH PLATTE   CLEAR     50  42  74 NW10      30.21R
IMPERIAL       CLEAR     48  40  73 NW9       30.25R
LEXINGTON      CLEAR     50  42  74 NW10      30.17R
MCCOOK         CLEAR     52  42  69 NW9       30.20R
OGALLALA       CLEAR     46  41  81 W3        30.26R
$$

NEZ005>010-023>029-035>040-094-251100-
NORTH CENTRAL NEBRASKA

CITY           SKY/WX    TMP DP  RH WIND       PRES   REMARKS
VALENTINE      CLOUDY    54  42  64 NW18G29   30.13R
AINSWORTH      PTCLDY    55  43  66 W16G26    30.13R
BROKEN BOW     CLEAR     53  42  66 NW13G22   30.14R
O`NEILL        CLEAR     54  42  64 W13       30.08S
ORD            CLEAR     55  41  59 NW13      30.11R
THEDFORD       CLEAR     51  43  72 NW9       30.19R
$$

NEZ041-046>049-061>064-073>077-083>087-251100-
SOUTH CENTRAL NEBRASKA

CITY           SKY/WX    TMP DP  RH WIND       PRES   REMARKS
GRAND ISLAND   PTCLDY    55  43  63 NW10      30.11R
AURORA         PTCLDY    54  47  77 NW9       30.10R
HASTINGS       CLEAR     56  43  61 NW14      30.12R
HEBRON         CLOUDY    56  49  76 NW3       30.10R
HOLDREGE       CLEAR     54  41  62 NW12G18   30.14R
KEARNEY *      CLEAR     54  39  58 NW12      30.13R
YORK           MOCLDY    52  48  87 NW7       30.09R
$$

NEZ011>018-030>034-042>045-251100-
NORTHEAST NEBRASKA

CITY           SKY/WX    TMP DP  RH WIND       PRES   REMARKS
NORFOLK        CLEAR     53  44  71 W9        30.06R
ALBION         CLEAR     55  43  65 NW12G20   30.09R
BLAIR          CLOUDY    61  52  73 NW9G16    30.03R
FREMONT        PTCLDY    58  51  76 W7        30.05R
TEKAMAH        CLOUDY    59  50  72 NW10      30.02R
WAYNE          CLOUDY    54  47  76 W7        30.04R
$$

NEZ050>053-065>068-078-088>093-251100-
SOUTHEAST NEBRASKA

CITY           SKY/WX    TMP DP  RH WIND       PRES   REMARKS
LINCOLN        MOCLDY    61  51  70 NW8       30.07R
OMAHA EPPLEY   CLOUDY    62  52  69 NW14G24   30.03R
BEATRICE       CLOUDY    58  54  84 N14G22    30.07R
FALLS CITY     LGT RAIN  69  68  96 S6        30.01R
NEBRASKA CITY  DRIZZLE   64  61  91 W3        30.04R
PLATTSMOUTH    CLOUDY    64  61  90 W9        30.04R
$$

NEZ044-045-051>053-067-251100-
OMAHA AREA

CITY           SKY/WX    TMP DP  RH WIND       PRES   REMARKS
OMAHA EPPLEY   CLOUDY    62  52  69 NW14G24   30.03R
BLAIR          CLOUDY    61  52  73 NW9G16    30.03R
FREMONT        PTCLDY    58  51  76 W7        30.05R
MILLARD        CLOUDY    62  56  79 W7        30.04R
OFFUTT AFB     CLOUDY    63  55  77 NW13      30.03R
PLATTSMOUTH    CLOUDY    64  61  90 W9        30.04R
WAHOO          PTSUNNY   58  52  78 NW5       30.06R
$$




USA.gov is the U.S. government's official web portal to all federal, state and local government web resources and services.